Total_Precipitation_Accumulation
3.81 3.92 4.05 4.26 3.97 4.05 4.54 4.73 4.62 4.92 4.97 4.65 4.36 3.98 3.70 3.38 3.20 3.25 3.41 3.41 3.31 3.44 3.82 4.04 3.92 3.81 3.58 3.29 3.16 3.10 3.07 2.94 2.79 2.53 2.31 2.42 2.66 2.57 2.23 2.03 1.99 1.79 1.72
4.12 4.32 4.27 4.37 4.09 3.87 4.12 4.40 4.49 5.25 5.16 5.03 4.53 4.14 4.01 3.88 3.56 3.47 3.49 3.72 3.58 3.37 3.54 3.99 4.15 4.11 3.96 3.67 3.45 3.27 3.20 3.13 2.85 2.43 2.24 2.24 2.43 2.59 2.47 2.30 2.11 1.93 1.73
4.05 4.32 4.53 4.50 4.20 3.95 4.21 4.42 4.67 4.98 4.75 4.65 4.46 4.25 4.12 3.98 3.67 3.57 3.79 4.00 3.74 3.55 3.48 3.70 4.10 4.31 4.41 4.43 4.15 3.74 3.31 3.06 2.87 2.64 2.43 2.32 2.43 2.55 2.57 2.52 2.36 2.13 1.92
4.06 4.33 4.26 4.15 4.24 4.21 4.49 4.73 4.83 4.89 4.81 4.63 4.40 4.03 3.87 3.96 3.55 3.42 3.46 3.57 3.66 3.35 3.57 3.91 4.19 4.28 4.53 4.74 4.79 4.72 4.14 3.49 3.18 2.91 2.63 2.50 2.54 2.51 2.47 2.49 2.44 2.24 2.04
3.84 4.11 4.11 4.23 4.29 4.31 4.43 4.05 4.65 4.70 4.79 4.62 4.00 3.84 3.55 3.56 3.47 3.14 3.13 3.00 3.18 3.31 3.34 3.46 3.81 3.93 4.53 5.04 5.33 5.44 5.27 4.59 3.85 3.32 3.06 2.82 2.71 2.48 2.35 2.36 2.38 2.27 2.10
3.79 4.05 4.06 4.21 4.23 4.35 4.44 4.43 4.71 4.64 4.51 4.45 3.60 3.47 3.37 3.10 3.04 3.06 2.90 2.86 2.99 2.86 3.04 3.34 3.65 3.38 3.90 4.47 4.70 5.17 5.55 5.30 4.62 4.02 3.73 3.49 3.29 2.93 2.56 2.45 2.50 2.48 2.28
3.90 4.29 4.15 4.55 4.41 4.20 4.20 4.31 4.56 4.48 4.24 4.30 4.25 3.71 3.12 2.79 2.83 2.75 2.85 2.95 2.79 2.85 3.20 3.62 3.76 3.56 3.27 3.35 3.44 3.86 4.71 5.43 5.38 4.91 4.52 4.13 3.95 3.71 3.02 2.72 2.64 2.56 2.45
3.83 3.84 4.25 4.21 4.23 4.35 4.28 4.25 4.44 4.29 3.92 4.13 4.41 4.36 3.62 3.41 2.90 2.35 2.67 2.84 2.91 3.17 3.30 3.36 3.75 3.91 3.55 3.63 3.01 2.98 3.80 4.99 5.64 5.65 5.16 4.67 4.39 4.19 3.73 3.50 3.16 2.79 2.59
3.44 3.64 3.81 3.97 4.31 4.15 4.20 4.32 4.22 4.16 3.92 3.90 4.12 4.51 4.06 3.57 3.03 2.48 2.34 2.61 3.00 3.34 3.32 3.37 3.48 3.68 3.76 4.00 3.80 3.35 3.27 3.70 4.66 5.61 5.69 5.18 4.59 4.17 4.04 4.09 3.85 3.35 2.98
3.39 3.44 3.56 3.74 3.93 3.72 3.79 3.50 3.60 3.92 4.11 3.84 3.95 3.90 3.83 3.75 3.65 3.06 2.62 2.58 2.87 3.05 3.24 3.23 3.37 3.57 3.78 4.18 4.28 3.80 3.40 3.20 3.55 4.69 5.61 5.65 5.13 4.59 4.49 4.62 4.71 4.30 3.66
3.37 3.31 3.33 3.39 3.44 3.32 3.40 3.34 3.57 3.57 3.60 3.61 3.70 3.79 3.92 3.93 3.72 3.51 3.12 3.03 2.92 2.64 2.70 2.93 3.16 3.35 3.56 3.96 4.23 3.92 3.76 3.42 3.28 3.52 4.23 4.93 5.11 4.94 4.71 4.82 5.18 5.25 4.84
3.20 3.11 3.05 3.11 3.12 3.12 3.18 3.24 3.39 3.30 3.36 3.50 3.57 3.62 3.82 3.85 3.91 3.89 3.34 3.13 2.89 2.38 2.34 2.35 2.59 2.90 3.34 3.69 3.60 3.71 3.55 3.29 3.11 3.07 3.16 3.60 4.05 4.38 4.56 4.83 5.33 5.87 5.97
2.67 2.81 2.74 2.91 2.92 2.94 2.97 3.09 3.22 3.20 3.33 3.49 3.42 3.50 3.59 3.53 3.70 3.85 3.79 3.28 2.91 2.49 2.54 2.47 2.46 2.68 2.81 3.21 3.34 3.29 3.00 2.86 2.67 2.62 2.57 2.72 3.00 3.31 3.62 4.07 4.70 5.36 5.84
2.28 2.51 2.68 2.72 2.71 2.74 2.84 3.15 2.97 3.05 3.30 3.33 3.20 3.67 3.54 3.29 3.47 3.57 3.78 3.93 3.48 2.96 2.96 2.79 2.62 2.59 2.67 2.90 2.97 2.93 2.66 2.55 2.28 2.15 2.09 2.09 2.11 2.26 2.52 2.87 3.37 3.86 4.35
2.27 2.35 2.44 2.56 2.66 2.82 3.05 3.28 3.10 3.21 3.51 3.37 3.48 3.78 3.60 3.42 3.46 3.43 3.75 4.12 4.21 3.68 3.23 2.97 2.74 2.63 2.57 2.54 2.65 2.44 2.44 2.46 2.20 2.01 1.89 1.80 1.80 1.77 1.87 2.04 2.26 2.55 2.84
2.33 2.21 2.17 2.28 2.39 2.53 2.76 2.97 2.88 3.05 3.34 3.29 3.35 3.50 3.48 3.37 3.60 3.60 3.73 4.06 4.36 4.26 3.49 3.15 3.00 2.64 2.70 2.29 2.49 2.33 2.31 2.29 2.04 1.87 1.77 1.75 1.75 1.75 1.73 1.75 1.85 2.00 2.22
2.29 2.19 2.18 2.22 2.25 2.21 2.32 2.52 2.54 2.81 2.87 2.91 2.89 2.97 2.92 3.20 3.42 3.41 3.64 3.83 4.12 4.39 3.85 3.44 3.44 3.16 3.12 2.86 2.62 2.40 2.18 2.08 1.87 1.82 1.69 1.63 1.60 1.61 1.64 1.59 1.57 1.66 1.82
2.06 2.15 2.21 2.14 2.04 2.13 2.30 2.34 2.40 2.63 2.72 2.68 2.70 2.82 2.65 2.91 3.07 3.17 3.42 3.58 3.86 4.34 4.13 3.72 3.60 3.45 3.33 3.16 2.97 2.72 2.22 1.92 1.88 1.97 1.78 1.63 1.57 1.55 1.57 1.51 1.45 1.42 1.46
1.86 1.94 2.00 1.96 1.94 2.10 2.37 2.49 2.62 2.67 2.56 2.53 2.51 2.45 2.39 2.63 2.69 2.93 3.15 3.17 3.38 3.82 3.93 3.55 3.33 3.55 3.37 3.18 3.27 2.88 2.56 2.47 1.91 1.88 1.81 1.64 1.57 1.49 1.46 1.46 1.44 1.35 1.33
1.88 1.94 2.02 2.14 2.21 2.25 2.23 2.26 2.42 2.57 2.58 2.43 2.28 2.18 2.22 2.42 2.42 2.63 2.71 2.93 3.18 3.32 3.53 3.43 3.24 3.32 3.31 3.23 3.45 3.21 3.01 2.82 2.42 1.99 2.01 1.81 1.71 1.63 1.52 1.43 1.40 1.39 1.41
1.77 2.01 2.26 2.34 2.35 2.26 2.09 2.19 2.30 2.23 2.26 2.15 2.03 1.93 1.86 1.90 1.97 2.16 2.12 2.45 2.81 2.91 2.96 3.09 3.07 3.14 3.35 3.50 3.35 3.36 3.22 3.06 2.84 2.56 2.53 2.13 1.84 1.66 1.60 1.54 1.49 1.50 1.52
1.82 2.05 2.12 2.19 2.17 1.94 2.08 1.99 1.91 1.91 1.97 1.99 2.01 1.98 1.79 1.70 1.72 1.82 1.86 1.97 2.21 2.34 2.52 2.79 2.87 2.94 3.15 3.47 3.58 3.57 3.45 3.24 2.99 2.75 2.89 2.84 2.44 2.12 1.90 1.62 1.62 1.63 1.67
2.00 2.00 1.97 2.02 2.04 2.17 2.07 1.83 1.77 1.73 1.84 1.92 1.99 1.97 1.69 1.55 1.67 1.63 1.77 1.80 1.85 1.93 2.06 2.35 2.47 2.50 2.80 3.14 3.54 3.53 3.57 3.34 3.08 3.03 3.15 3.14 3.21 2.92 2.33 1.95 1.90 1.70 1.75
2.14 2.08 1.95 1.97 2.00 1.98 1.97 1.77 1.79 1.66 1.65 1.76 1.86 1.94 1.95 1.91 1.81 1.82 1.83 1.73 1.61 1.64 1.71 1.67 1.76 2.02 2.26 2.60 3.04 3.18 3.44 3.59 3.39 3.29 3.35 3.39 3.41 3.63 3.10 2.53 2.37 2.05 1.95
2.18 2.26 2.16 2.07 2.03 2.02 2.01 1.84 1.85 1.74 1.78 1.80 1.90 1.93 1.93 1.87 1.84 1.78 1.73 1.70 1.56 1.49 1.49 1.52 1.55 1.72 1.96 2.14 2.50 2.85 3.13 3.35 3.41 3.50 3.59 3.64 3.52 3.69 3.94 3.46 2.78 2.43 2.14
2.39 2.44 2.28 2.20 2.23 2.27 2.35 2.15 2.06 1.87 1.87 1.88 1.99 1.95 1.85 1.73 1.81 1.69 1.52 1.58 1.56 1.59 1.65 1.60 1.63 1.70 1.74 1.92 2.27 2.54 2.82 3.14 3.18 3.28 3.12 3.14 3.16 3.36 3.80 3.94 3.49 2.80 2.33